CW5346 Weather Reports


Display with metric or nautical units.
time (UTC)temp
F
wind
direction
speed
MPH
gust
MPH
rain 1hr
in
rain 24hr
in
rain mn
in
humidity
%
barometer
mb
20260904195603 81 289 0.0 4.0 0.00 0.01 0.01 67 1010.9
20260904194602 81 289 0.0 11.0 0.00 0.01 0.01 65 1010.7
20260904193603 81 253 0.0 6.0 0.00 0.01 0.01 68 1011.0
20260904192645 81 322 0.0 3.0 0.00 0.01 0.01 66 1011.1
20260904191603 81 322 1.0 6.0 0.00 0.02 0.01 66 1011.2
20260904190603 80 141 0.0 4.0 0.00 0.02 0.01 65 1011.2
20260904185603 81 98 0.0 9.0 0.00 0.02 0.01 68 1011.3
20260904184603 81 277 1.0 8.0 0.00 0.02 0.01 67 1011.3
20260904183603 80 330 1.0 4.0 0.00 0.02 0.01 68 1011.6
20260904182603 81 328 1.0 4.0 0.00 0.02 0.01 67 1011.4
20260904181603 81 324 1.0 12.0 0.00 0.02 0.01 65 1011.5
20260904180603 81 289 1.0 7.0 0.00 0.02 0.01 66 1011.4
20260904175624 81 2 2.0 8.0 0.00 0.02 0.01 65 1011.4
20260904174624 82 168 1.0 7.0 0.00 0.02 0.01 65 1011.2
20260904173603 81 328 0.0 4.0 0.00 0.02 0.01 70 1011.4
20260904172603 81 327 0.0 6.0 0.00 0.02 0.01 68 1011.3
20260904171603 81 286 3.0 8.0 0.00 0.02 0.01 68 1011.3
20260904170603 81 4 1.0 5.0 0.00 0.02 0.01 68 1011.5
20260904165603 80 264 2.0 5.0 0.00 0.02 0.01 67 1011.6
20260904164603 80 289 0.0 6.0 0.00 0.02 0.01 71 1011.6
20260904163603 80 310 3.0 8.0 0.00 0.02 0.01 68 1011.7
20260904162603 80 338 0.0 6.0 0.00 0.02 0.01 70 1011.6
20260904161603 81 317 2.0 10.0 0.00 0.02 0.01 71 1011.6
20260904160624 80 323 1.0 8.0 0.00 0.02 0.01 70 1011.6
20260904155603 80 355 1.0 10.0 0.00 0.02 0.01 71 1011.6
20260904154603 80 330 3.0 8.0 0.00 0.02 0.01 71 1011.7
20260904153603 80 21 1.0 12.0 0.00 0.02 0.01 72 1011.8
20260904152610 80 346 1.0 12.0 0.00 0.02 0.01 76 1012.0
20260904151606 79 320 2.0 7.0 0.00 0.02 0.01 73 1012.2
20260904150624 79 349 3.0 11.0 0.00 0.02 0.01 74 1012.1
20260904145603 79 335 1.0 5.0 0.00 0.02 0.01 76 1012.0
20260904144602 79 335 2.0 6.0 0.00 0.02 0.01 76 1012.0
20260904143603 79 345 2.0 8.0 0.00 0.02 0.01 77 1011.9
20260904142603 79 19 1.0 5.0 0.00 0.02 0.01 77 1011.9
20260904141602 79 342 2.0 9.0 0.00 0.02 0.01 75 1012.0
20260904140603 79 208 1.0 7.0 0.00 0.02 0.01 79 1011.9
20260904135603 78 340 0.0 3.0 0.00 0.02 0.01 79 1011.9
20260904134604 77 336 1.0 9.0 0.00 0.02 0.01 77 1011.8
20260904133603 77 11 1.0 8.0 0.00 0.02 0.01 81 1011.9
20260904132602 77 359 0.0 10.0 0.00 0.02 0.01 83 1012.0
20260904131603 76 335 1.0 9.0 0.00 0.02 0.01 83 1011.8
20260904130625 76 5 1.0 8.0 0.00 0.02 0.01 85 1011.9
20260904125603 75 4 0.0 6.0 0.00 0.02 0.01 88 1011.9
20260904124604 74 354 0.0 6.0 0.00 0.02 0.01 89 1011.8
20260904123602 73 359 0.0 5.0 0.00 0.02 0.01 90 1011.8
20260904122624 73 5 0.0 9.0 0.00 0.02 0.01 92 1011.7
20260904121603 72 354 0.0 1.0 0.00 0.02 0.01 92 1011.8
20260904120603 72 355 0.0 4.0 0.00 0.02 0.01 93 1011.6
20260904115603 72 307 0.0 5.0 0.00 0.02 0.01 94 1011.6
20260904113603 71 296 0.0 7.0 0.00 0.02 0.01 95 1011.5
20260904112603 71 288 1.0 4.0 0.00 0.02 0.01 96 1011.4
20260904111603 71 296 0.0 5.0 0.00 0.02 0.01 96 1011.0
20260904105602 71 349 0.0 0.0 0.00 0.02 0.01 97 1011.1
20260904104604 71 349 0.0 0.0 0.00 0.02 0.01 98 1011.0
20260904103603 71 350 0.0 1.0 0.00 0.02 0.01 98 1011.0
20260904102603 71 355 0.0 3.0 0.00 0.02 0.01 98 1010.8
20260904101624 71 354 0.0 1.0 0.00 0.02 0.01 98 1010.7
20260904100603 71 355 0.0 0.0 0.00 0.02 0.01 98 1010.8
20260904095602 71 355 0.0 0.0 0.00 0.02 0.01 98 1010.7
20260904094603 71 355 0.0 0.0 0.00 0.02 0.01 97 1010.6
20260904093603 71 355 0.0 0.0 0.00 0.02 0.01 97 1010.5
20260904092603 71 355 0.0 0.0 0.00 0.02 0.01 97 1010.6
20260904091624 71 355 0.0 0.0 0.00 0.02 0.01 97 1010.6
20260904090603 72 355 0.0 0.0 0.00 0.02 0.01 97 1010.4
20260904085602 72 355 0.0 0.0 0.00 0.02 0.01 97 1010.4
20260904084603 72 355 0.0 0.0 0.00 0.03 0.01 98 1010.4
20260904083605 73 355 0.0 0.0 0.00 0.03 0.01 98 1010.4
20260904082605 73 355 0.0 0.0 0.00 0.03 0.01 98 1010.5
20260904081603 73 355 0.0 0.0 0.00 0.03 0.01 98 1010.4
20260904080604 73 355 0.0 0.0 0.00 0.03 0.01 98 1010.4
20260904075603 73 355 0.0 0.0 0.00 0.04 0.01 98 1010.1
20260904074604 73 355 0.0 2.0 0.00 0.04 0.01 98 1010.0
20260904073603 73 351 0.0 15.0 0.00 0.04 0.01 98 1010.0
20260904072604 73 213 0.0 0.0 0.00 0.04 0.01 98 1010.0
20260904071604 73 213 0.0 0.0 0.00 0.04 0.01 98 1010.2
20260904070605 73 213 0.0 0.0 0.00 0.04 0.01 98 1010.1
20260904065603 73 213 0.0 0.0 0.01 0.04 0.01 98 1010.0
20260904064604 73 213 0.0 0.0 0.01 0.04 0.01 98 1010.1
20260904063604 73 213 0.0 0.0 0.01 0.04 0.01 98 1010.5
20260904062604 73 212 1.0 3.0 0.01 0.04 0.01 98 1010.9
20260904061604 73 213 0.0 0.0 0.00 0.04 0.00 98 1011.1
20260904060625 73 213 0.0 0.0 0.00 0.04 0.00 98 1011.2
20260904055604 73 213 0.0 0.0 0.00 0.04 0.00 98 1010.9
20260904054603 73 213 0.0 0.0 0.00 0.04 0.00 98 1011.0
20260904053604 73 213 0.0 0.0 0.00 0.04 0.00 98 1011.2
20260904052624 73 213 0.0 0.0 0.00 0.04 0.00 98 1011.5
20260904051604 73 213 0.0 0.0 0.00 0.05 0.00 98 1011.4
20260904050604 73 213 0.0 0.0 0.00 0.07 0.00 98 1011.2
20260904045604 73 213 0.0 0.0 0.00 0.09 0.00 97 1011.1
20260904044605 73 213 0.0 0.0 0.00 0.12 0.00 97 1011.0
20260904043607 73 213 0.0 0.0 0.00 0.14 0.00 97 1011.3
20260904042604 73 213 0.0 0.0 0.00 0.17 0.00 97 1011.3
20260904041604 73 213 0.0 0.0 0.00 0.18 0.00 97 1011.5
20260904040604 73 213 0.0 0.0 0.00 0.19 0.00 97 1011.7
20260904035603 73 213 0.0 0.0 0.00 0.19 0.19 97 1011.8
20260904034604 73 213 0.0 0.0 0.00 0.19 0.19 97 1011.9
20260904033626 73 213 0.0 0.0 0.00 0.19 0.19 97 1011.6
20260904032603 73 213 0.0 0.0 0.00 0.19 0.19 97 1011.6
20260904031604 73 213 0.0 0.0 0.00 0.19 0.19 97 1011.4
20260904030604 73 213 0.0 0.0 0.00 0.19 0.19 97 1011.3
20260904025604 74 213 0.0 0.0 0.00 0.19 0.19 97 1011.7
20260904024603 74 213 0.0 0.0 0.00 0.19 0.19 97 1012.1
20260904023603 74 213 0.0 0.0 0.00 0.19 0.19 97 1011.9
20260904022625 74 213 0.0 0.0 0.00 0.19 0.19 97 1012.0
20260904021604 74 213 0.0 0.0 0.00 0.19 0.19 97 1012.3
20260904020603 74 213 0.0 0.0 0.00 0.19 0.19 97 1012.7
20260904015604 74 213 0.0 0.0 0.00 0.19 0.19 97 1012.7
20260904014603 74 213 0.0 0.0 0.00 0.19 0.19 96 1012.6
20260904013626 74 213 0.0 0.0 0.00 0.19 0.19 97 1012.8
20260904012603 74 213 0.0 0.0 0.00 0.19 0.19 96 1012.9
20260904011625 75 213 0.0 0.0 0.00 0.19 0.19 96 1012.8
20260904010604 75 213 0.0 0.0 0.00 0.19 0.19 96 1012.6
20260904005604 75 213 0.0 0.0 0.00 0.19 0.19 96 1012.4
20260904004625 75 213 0.0 0.0 0.00 0.19 0.19 96 1012.3
20260904003624 75 213 0.0 0.0 0.00 0.19 0.19 95 1012.2
20260904002604 76 213 0.0 0.0 0.00 0.19 0.19 95 1012.4
20260904001646 76 213 0.0 0.0 0.00 0.19 0.19 95 1012.4
20260904000603 76 213 0.0 0.0 0.00 0.19 0.19 95 1012.3
20260903235604 77 213 0.0 0.0 0.00 0.19 0.19 95 1012.2
20260903234604 77 213 0.0 0.0 0.00 0.19 0.19 94 1011.8
20260903233603 77 213 0.0 0.0 0.00 0.19 0.19 94 1012.0
20260903232604 78 213 0.0 0.0 0.00 0.19 0.19 93 1011.9
20260903231603 78 213 0.0 0.0 0.00 0.19 0.19 93 1011.7
20260903230604 79 213 0.0 0.0 0.00 0.19 0.19 92 1011.7
20260903225603 79 213 0.0 0.0 0.00 0.19 0.19 92 1011.9
20260903224625 79 213 0.0 0.0 0.00 0.19 0.19 92 1012.0
20260903223625 80 213 0.0 0.0 0.00 0.19 0.19 92 1012.0
20260903222603 80 213 0.0 0.0 0.00 0.19 0.19 91 1012.0
20260903221604 80 213 0.0 0.0 0.00 0.19 0.19 90 1012.0
20260903220625 80 213 0.0 0.0 0.00 0.19 0.19 90 1012.1
20260903215604 80 213 0.0 0.0 0.00 0.19 0.19 90 1012.0
20260903214603 81 213 0.0 0.0 0.00 0.19 0.19 90 1011.8
20260903213604 81 213 0.0 0.0 0.00 0.19 0.19 89 1011.8
20260903212603 81 213 0.0 0.0 0.00 0.19 0.19 88 1011.8
20260903211625 81 213 0.0 0.0 0.00 0.19 0.19 88 1011.9
20260903210604 81 213 0.0 0.0 0.00 0.19 0.19 86 1012.1
20260903205603 81 213 0.0 0.0 0.00 0.19 0.19 86 1012.1
20260903204604 82 213 0.0 0.0 0.00 0.19 0.19 87 1012.0
20260903203603 82 213 0.0 0.0 0.00 0.19 0.19 86 1011.9
20260903202604 82 213 0.0 0.0 0.00 0.19 0.19 83 1012.0
20260903201603 83 213 0.0 0.0 0.00 0.19 0.19 83 1011.9
20260903200604 82 213 0.0 0.0 0.00 0.19 0.19 82 1011.9